This demonstration page uses our WeatherBlox Daily Observations layout. Learn more.

Left ArrowRight Arrow

Hourly Observations for May 14, 2016

Temp ( °F °C ) Dew Point ( °F °C ) Humidity (%) Winds ( mph kmh ) Pressure ( in mb ) Visibility ( mi km ) Precip ( " mm )
12:21 am 00:21 Cloudy 56 13.3 47 8.3 72 72 N 25 41 30.12 1020 10 16 0.00 0.00
12:52 am 00:52 Cloudy 54 12.2 45 7.2 72 72 N 21 33 30.10 1019 10 16 0.00 0.00
1:52 am 01:52 Cloudy 51 10.6 37 2.8 59 59 N 21 33 30.12 1020 10 16 0.00 0.00
2:52 am 02:52 Cloudy 49 9.4 34 1.1 56 56 N 20 31 30.14 1021 10 16 0.00 0.00
3:52 am 03:52 Partly Cloudy 47 8.3 35 1.7 63 63 N 13 20 30.17 1022 10 16 0.00 0.00
4:52 am 04:52 Mostly Cloudy 46 7.8 35 1.7 66 66 N 12 19 30.18 1022 10 16 0.00 0.00
5:52 am 05:52 Clear 45 7.2 32 0 61 61 N 14 22 30.19 1023 10 16 0.00 0.00
6:52 am 06:52 Sunny 44 6.7 32 0 63 63 NNW 10 17 30.21 1023 10 16 0.00 0.00
7:52 am 07:52 Mostly Sunny 47 8.3 32 0 56 56 NNW 16 26 30.24 1024 10 16 0.00 0.00
8:52 am 08:52 Sunny 47 8.3 30 -1.1 52 52 N 21 33 30.26 1025 10 16 0.00 0.00
9:52 am 09:52 Sunny 49 9.4 29 -1.7 46 46 N 20 31 30.25 1024 10 16 0.00 0.00
10:52 am 10:52 Mostly Sunny 48 8.9 28 -2.2 46 46 N 18 30 30.24 1024 10 16 0.00 0.00
11:52 am 11:52 Sunny 51 10.6 29 -1.7 43 43 NNW 12 19 30.25 1024 10 16 0.00 0.00
12:52 pm 12:52 Sunny 55 12.8 31 -0.6 40 40 NNW 16 26 30.22 1024 10 16 0.00 0.00
1:52 pm 13:52 Sunny 59 15 34 1.1 39 39 NNW 15 24 30.21 1023 10 16 0.00 0.00
2:52 pm 14:52 Sunny 59 15 32 0 36 36 N 12 19 30.19 1022 10 16 0.00 0.00
3:52 pm 15:52 Sunny 60 15.6 32 0 35 35 N 13 20 30.16 1021 10 16 0.00 0.00
4:52 pm 16:52 Sunny 61 16.1 31 -0.6 32 32 N 12 19 30.14 1021 10 16 0.00 0.00
5:52 pm 17:52 Sunny 60 15.6 30 -1.1 32 32 NNW 12 19 30.14 1021 10 16 0.00 0.00
6:52 pm 18:52 Sunny 58 14.4 31 -0.6 36 36 NNW 10 17 30.14 1021 10 16 0.00 0.00
7:52 pm 19:52 Sunny 54 12.2 32 0 43 43 N 8 13 30.14 1021 10 16 0.00 0.00
8:52 pm 20:52 Clear 51 10.6 33 0.6 50 50 N 8 13 30.15 1021 10 16 0.00 0.00
9:52 pm 21:52 Clear 50 10 33 0.6 52 52 Calm 30.18 1022 10 16 0.00 0.00
10:52 pm 22:52 Clear 45 7.2 35 1.7 68 68 Calm 30.20 1023 10 16 0.00 0.00
11:52 pm 23:52 Clear 41 5 35 1.7 79 79 SSE 3 6 30.21 1023 10 16 0.00 0.00

Powered by AerisWeather